VOZ428 YSSY-YPAD

Flight info

Callsign VOZ428
Flight time 1h 50m
Altitude 36000
Route TESAT A576 KADOM H44 MAXEM Q60 KAKLU H309 AD
Aircraft B738/M-SDE2E3FGHIRWXY/LB1

Departure

Time 2026-05-06 06:13
Airport Sydney Kingsford Smith International Airport (YSSY)

Arrival

Time 2026-05-06 08:03
Airport Adelaide International Airport (YPAD)
Time Latitude Longitude Altitude Speed Heading
2026-05-06 05:40 -33.93576 151.17900 28 ft 0 kts 101°
2026-05-06 06:01 -33.93576 151.17896 29 ft 3 kts 101°
2026-05-06 06:01 -33.93571 151.17865 29 ft 4 kts 102°
2026-05-06 06:02 -33.93562 151.17837 29 ft 4 kts 141°
2026-05-06 06:02 -33.93556 151.17831 29 ft 4 kts 190°
2026-05-06 06:02 -33.93583 151.17826 29 ft 4 kts 190°
2026-05-06 06:02 -33.93607 151.17821 29 ft 1 kts 190°
2026-05-06 06:06 -33.93634 151.17815 29 ft 8 kts 195°
2026-05-06 06:06 -33.93655 151.17762 29 ft 8 kts 272°
2026-05-06 06:06 -33.93647 151.17685 29 ft 10 kts 279°
2026-05-06 06:07 -33.93644 151.17602 29 ft 10 kts 268°
2026-05-06 06:07 -33.93609 151.17537 28 ft 10 kts 340°
2026-05-06 06:07 -33.93541 151.17517 28 ft 11 kts 347°
2026-05-06 06:07 -33.93467 151.17500 29 ft 11 kts 358°
2026-05-06 06:08 -33.93382 151.17503 29 ft 14 kts 351°
2026-05-06 06:08 -33.93290 151.17480 29 ft 13 kts 348°
2026-05-06 06:08 -33.93201 151.17457 29 ft 13 kts 347°
2026-05-06 06:08 -33.93115 151.17434 29 ft 13 kts 348°
2026-05-06 06:09 -33.93036 151.17414 28 ft 10 kts 348°
2026-05-06 06:09 -33.92975 151.17377 28 ft 9 kts 307°
2026-05-06 06:09 -33.92962 151.17325 30 ft 1 kts 282°
2026-05-06 06:09 -33.92962 151.17324 30 ft 0 kts 282°
2026-05-06 06:10 -33.92961 151.17323 30 ft 1 kts 282°
2026-05-06 06:10 -33.92955 151.17270 30 ft 11 kts 269°
2026-05-06 06:11 -33.93007 151.17190 29 ft 12 kts 196°
2026-05-06 06:11 -33.93068 151.17194 29 ft 4 kts 168°
2026-05-06 06:11 -33.93076 151.17196 29 ft 0 kts 168°
2026-05-06 06:12 -33.93211 151.17231 30 ft 53 kts 167°
2026-05-06 06:12 -33.93876 151.17405 26 ft 139 kts 168°
2026-05-06 06:12 -33.95043 151.17703 253 ft 192 kts 167°
2026-05-06 06:13 -33.96327 151.18033 1196 ft 187 kts 165°
2026-05-06 06:13 -33.97580 151.18091 1975 ft 176 kts 188°
2026-05-06 06:13 -33.98874 151.17921 2477 ft 196 kts 186°
2026-05-06 06:13 -34.00260 151.17765 3002 ft 202 kts 186°
2026-05-06 06:14 -34.01672 151.17609 3504 ft 205 kts 186°
2026-05-06 06:14 -34.03102 151.17583 3994 ft 209 kts 169°
2026-05-06 06:14 -34.04538 151.18092 4342 ft 227 kts 165°
2026-05-06 06:14 -34.06113 151.18636 4613 ft 247 kts 166°
2026-05-06 06:15 -34.07831 151.19214 5056 ft 263 kts 166°
2026-05-06 06:15 -34.09658 151.19824 5542 ft 278 kts 166°
2026-05-06 06:15 -34.11544 151.20360 6395 ft 279 kts 179°
2026-05-06 06:15 -34.13408 151.19870 7187 ft 277 kts 212°
2026-05-06 06:16 -34.14789 151.18297 7997 ft 275 kts 240°
2026-05-06 06:16 -34.15470 151.16163 8805 ft 274 kts 263°
2026-05-06 06:16 -34.15386 151.13872 9603 ft 276 kts 285°
2026-05-06 06:16 -34.14592 151.11752 10325 ft 282 kts 300°
2026-05-06 06:17 -34.13551 151.09713 10815 ft 294 kts 302°
2026-05-06 06:17 -34.12429 151.07619 11512 ft 299 kts 302°
2026-05-06 06:17 -34.11290 151.05511 12320 ft 301 kts 302°
2026-05-06 06:17 -34.10148 151.03388 13114 ft 303 kts 302°
2026-05-06 06:18 -34.09003 151.01252 13892 ft 305 kts 302°
2026-05-06 06:18 -34.07852 150.99087 14579 ft 308 kts 301°
2026-05-06 06:18 -34.06691 150.96900 15280 ft 311 kts 301°
2026-05-06 06:18 -34.05521 150.94689 15931 ft 315 kts 301°
2026-05-06 06:19 -34.04339 150.92453 16601 ft 318 kts 301°
2026-05-06 06:19 -34.03144 150.90191 17270 ft 322 kts 301°
2026-05-06 06:19 -34.01936 150.87908 17941 ft 325 kts 301°
2026-05-06 06:19 -34.00714 150.85596 18577 ft 328 kts 301°
2026-05-06 06:20 -33.99484 150.83269 19168 ft 331 kts 301°
2026-05-06 06:20 -33.98244 150.80927 19800 ft 332 kts 301°
2026-05-06 06:20 -33.96996 150.78571 20381 ft 335 kts 301°
2026-05-06 06:20 -33.95740 150.76200 20978 ft 337 kts 301°
2026-05-06 06:21 -33.94474 150.73812 21549 ft 340 kts 301°
2026-05-06 06:21 -33.93197 150.71405 22122 ft 342 kts 301°
2026-05-06 06:21 -33.91908 150.68978 22695 ft 345 kts 301°
2026-05-06 06:21 -33.90612 150.66539 23256 ft 348 kts 301°
2026-05-06 06:22 -33.89303 150.64076 23787 ft 350 kts 301°
2026-05-06 06:22 -33.87985 150.61599 24257 ft 352 kts 301°
2026-05-06 06:22 -33.86659 150.59108 24724 ft 354 kts 301°
2026-05-06 06:22 -33.85327 150.56607 25192 ft 356 kts 301°
2026-05-06 06:23 -33.84438 150.54939 25481 ft 358 kts 301°
2026-05-06 06:23 -33.82632 150.51553 26064 ft 361 kts 301°
2026-05-06 06:23 -33.81731 150.49864 26358 ft 362 kts 301°
2026-05-06 06:23 -33.80366 150.47309 26789 ft 364 kts 301°
2026-05-06 06:24 -33.78992 150.44738 27223 ft 366 kts 301°
2026-05-06 06:24 -33.77612 150.42157 27644 ft 368 kts 301°
2026-05-06 06:24 -33.76223 150.39560 28053 ft 370 kts 301°
2026-05-06 06:24 -33.74827 150.36952 28457 ft 372 kts 301°
2026-05-06 06:25 -33.73421 150.34329 28881 ft 374 kts 301°
2026-05-06 06:25 -33.72257 150.31540 29268 ft 375 kts 289°
2026-05-06 06:25 -33.71434 150.25359 30057 ft 380 kts 268°
2026-05-06 06:26 -33.71675 150.22180 30376 ft 383 kts 266°
2026-05-06 06:26 -33.71975 150.18993 30685 ft 385 kts 265°
2026-05-06 06:26 -33.72285 150.15800 31026 ft 385 kts 265°
2026-05-06 06:26 -33.72591 150.12597 31353 ft 386 kts 266°
2026-05-06 06:27 -33.72888 150.09385 31647 ft 388 kts 266°
2026-05-06 06:27 -33.73177 150.06160 31936 ft 389 kts 266°
2026-05-06 06:27 -33.73462 150.02920 32232 ft 390 kts 266°
2026-05-06 06:27 -33.73743 149.99679 32574 ft 390 kts 266°
2026-05-06 06:28 -33.74022 149.96436 32844 ft 391 kts 266°
2026-05-06 06:28 -33.74301 149.93177 33115 ft 392 kts 267°
2026-05-06 06:28 -33.74579 149.89913 33376 ft 393 kts 267°
2026-05-06 06:28 -33.74857 149.86639 33637 ft 395 kts 267°
2026-05-06 06:29 -33.75136 149.83355 33897 ft 396 kts 267°
2026-05-06 06:29 -33.75414 149.80063 34130 ft 397 kts 267°
2026-05-06 06:29 -33.75692 149.76760 34344 ft 398 kts 267°
2026-05-06 06:29 -33.75971 149.73448 34555 ft 399 kts 267°
2026-05-06 06:30 -33.76249 149.70125 34743 ft 400 kts 267°
2026-05-06 06:30 -33.76527 149.66799 34937 ft 401 kts 267°
2026-05-06 06:30 -33.76805 149.63460 35139 ft 402 kts 267°
2026-05-06 06:30 -33.77083 149.60116 35316 ft 403 kts 267°
2026-05-06 06:31 -33.77359 149.56762 35519 ft 403 kts 267°
2026-05-06 06:31 -33.77632 149.53414 35791 ft 401 kts 267°
2026-05-06 06:31 -33.77903 149.50085 36080 ft 400 kts 268°
2026-05-06 06:32 -33.78444 149.43382 36096 ft 405 kts 268°
2026-05-06 06:32 -33.78984 149.36677 36091 ft 401 kts 268°
2026-05-06 06:33 -33.79516 149.30033 36092 ft 398 kts 268°
2026-05-06 06:33 -33.80040 149.23434 36103 ft 396 kts 268°
2026-05-06 06:34 -33.80558 149.16860 36100 ft 395 kts 268°
2026-05-06 06:34 -33.81072 149.10290 36108 ft 395 kts 268°
2026-05-06 06:35 -33.81584 149.03702 36113 ft 396 kts 268°
2026-05-06 06:35 -33.82095 148.97080 36105 ft 399 kts 268°
2026-05-06 06:36 -33.82606 148.90415 36114 ft 401 kts 268°
2026-05-06 06:36 -33.83116 148.83713 36114 ft 404 kts 268°
2026-05-06 06:37 -33.83626 148.76970 36115 ft 406 kts 268°
2026-05-06 06:37 -33.84135 148.70199 36115 ft 407 kts 268°
2026-05-06 06:38 -33.84758 148.63467 36112 ft 409 kts 263°
2026-05-06 06:38 -33.85877 148.56755 36109 ft 409 kts 262°
2026-05-06 06:39 -33.87021 148.50059 36121 ft 408 kts 262°
2026-05-06 06:39 -33.88143 148.43383 36116 ft 407 kts 262°
2026-05-06 06:40 -33.89249 148.36717 36123 ft 405 kts 262°
2026-05-06 06:40 -33.90344 148.30069 36128 ft 405 kts 262°
2026-05-06 06:41 -33.91432 148.23429 36123 ft 404 kts 262°
2026-05-06 06:41 -33.92515 148.16800 36130 ft 403 kts 262°
2026-05-06 06:42 -33.93594 148.10173 36126 ft 403 kts 262°
2026-05-06 06:42 -33.94669 148.03549 36129 ft 403 kts 263°
2026-05-06 06:43 -33.95741 147.96913 36137 ft 404 kts 263°
2026-05-06 06:43 -33.96812 147.90266 36133 ft 405 kts 263°
2026-05-06 06:44 -33.97881 147.83604 36130 ft 405 kts 263°
2026-05-06 06:44 -33.98949 147.76930 36131 ft 406 kts 263°
2026-05-06 06:45 -34.00014 147.70248 36135 ft 406 kts 263°
2026-05-06 06:45 -34.01077 147.63554 36136 ft 407 kts 263°
2026-05-06 06:46 -34.02137 147.56853 36137 ft 407 kts 263°
2026-05-06 06:46 -34.03187 147.50193 36137 ft 407 kts 263°
2026-05-06 06:47 -34.04247 147.43443 36138 ft 407 kts 263°
2026-05-06 06:47 -34.05290 147.36777 36138 ft 407 kts 263°
2026-05-06 06:48 -34.06335 147.30070 36137 ft 407 kts 263°
2026-05-06 06:48 -34.07376 147.23367 36141 ft 407 kts 263°
2026-05-06 06:49 -34.08413 147.16668 36141 ft 406 kts 263°
2026-05-06 06:49 -34.09445 147.09968 36145 ft 406 kts 263°
2026-05-06 06:50 -34.10473 147.03273 36145 ft 406 kts 263°
2026-05-06 06:50 -34.11498 146.96574 36143 ft 406 kts 263°
2026-05-06 06:51 -34.12518 146.89880 36152 ft 405 kts 263°
2026-05-06 06:51 -34.13535 146.83184 36135 ft 406 kts 263°
2026-05-06 06:52 -34.14547 146.76490 36143 ft 405 kts 263°
2026-05-06 06:52 -34.15555 146.69800 36154 ft 405 kts 263°
2026-05-06 06:53 -34.16559 146.63112 36142 ft 405 kts 263°
2026-05-06 06:53 -34.17558 146.56427 36153 ft 404 kts 263°
2026-05-06 06:54 -34.18553 146.49746 36152 ft 404 kts 263°
2026-05-06 06:54 -34.19544 146.43064 36154 ft 404 kts 263°
2026-05-06 06:55 -34.20532 146.36384 36153 ft 404 kts 263°
2026-05-06 06:55 -34.21514 146.29707 36152 ft 404 kts 263°
2026-05-06 06:56 -34.22494 146.23028 36155 ft 404 kts 263°
2026-05-06 06:56 -34.23469 146.16346 36151 ft 404 kts 263°
2026-05-06 06:57 -34.24442 146.09666 36157 ft 404 kts 263°
2026-05-06 06:57 -34.25377 146.02982 36159 ft 403 kts 264°
2026-05-06 06:58 -34.26198 145.96320 36153 ft 403 kts 265°
2026-05-06 06:58 -34.27008 145.89617 36156 ft 403 kts 265°
2026-05-06 06:59 -34.27823 145.82918 36160 ft 403 kts 265°
2026-05-06 06:59 -34.28642 145.76217 36161 ft 403 kts 265°
2026-05-06 07:00 -34.29458 145.69518 36160 ft 403 kts 265°
2026-05-06 07:00 -34.30271 145.62825 36162 ft 402 kts 265°
2026-05-06 07:01 -34.31080 145.56132 36162 ft 402 kts 265°
2026-05-06 07:01 -34.31884 145.49445 36161 ft 402 kts 265°
2026-05-06 07:02 -34.32685 145.42753 36160 ft 402 kts 265°
2026-05-06 07:02 -34.33482 145.36070 36158 ft 401 kts 265°
2026-05-06 07:03 -34.34274 145.29388 36158 ft 401 kts 265°
2026-05-06 07:03 -34.35062 145.22710 36156 ft 401 kts 265°
2026-05-06 07:04 -34.35847 145.16031 36161 ft 401 kts 265°
2026-05-06 07:04 -34.36626 145.09358 36157 ft 400 kts 265°
2026-05-06 07:05 -34.37403 145.02684 36160 ft 400 kts 265°
2026-05-06 07:05 -34.38175 144.96014 36156 ft 400 kts 265°
2026-05-06 07:06 -34.38943 144.89348 36155 ft 400 kts 265°
2026-05-06 07:06 -34.39707 144.82684 36159 ft 400 kts 265°
2026-05-06 07:07 -34.40467 144.76020 36157 ft 399 kts 265°
2026-05-06 07:07 -34.41222 144.69361 36161 ft 399 kts 265°
2026-05-06 07:08 -34.41848 144.63829 36161 ft 399 kts 265°
2026-05-06 07:08 -34.42722 144.56049 36158 ft 399 kts 265°
2026-05-06 07:09 -34.43340 144.50525 36160 ft 398 kts 265°
2026-05-06 07:09 -34.44080 144.43878 36156 ft 398 kts 265°
2026-05-06 07:10 -34.44816 144.37233 36155 ft 398 kts 265°
2026-05-06 07:10 -34.45548 144.30596 36156 ft 397 kts 265°
2026-05-06 07:11 -34.46276 144.23957 36165 ft 397 kts 266°
2026-05-06 07:11 -34.46999 144.17328 36162 ft 397 kts 266°
2026-05-06 07:12 -34.47719 144.10697 36160 ft 396 kts 266°
2026-05-06 07:12 -34.48434 144.04077 36161 ft 396 kts 266°
2026-05-06 07:13 -34.49145 143.97459 36161 ft 396 kts 266°
2026-05-06 07:13 -34.49853 143.90838 36162 ft 396 kts 266°
2026-05-06 07:14 -34.50556 143.84227 36158 ft 395 kts 266°
2026-05-06 07:14 -34.51255 143.77614 36158 ft 395 kts 266°
2026-05-06 07:15 -34.51950 143.71007 36154 ft 395 kts 266°
2026-05-06 07:15 -34.52641 143.64406 36158 ft 395 kts 266°
2026-05-06 07:16 -34.53328 143.57806 36163 ft 394 kts 266°
2026-05-06 07:16 -34.54011 143.51208 36160 ft 394 kts 266°
2026-05-06 07:17 -34.54686 143.44656 36163 ft 394 kts 266°
2026-05-06 07:17 -34.55361 143.38063 36158 ft 394 kts 266°
2026-05-06 07:18 -34.56033 143.31472 36160 ft 394 kts 266°
2026-05-06 07:18 -34.56701 143.24877 36157 ft 394 kts 266°
2026-05-06 07:19 -34.57365 143.18289 36161 ft 393 kts 266°
2026-05-06 07:19 -34.58025 143.11700 36159 ft 393 kts 266°
2026-05-06 07:20 -34.58682 143.05115 36157 ft 393 kts 266°
2026-05-06 07:20 -34.59334 142.98531 36160 ft 393 kts 266°
2026-05-06 07:21 -34.59983 142.91944 36161 ft 393 kts 266°
2026-05-06 07:21 -34.60628 142.85362 36157 ft 393 kts 266°
2026-05-06 07:22 -34.61270 142.78783 36157 ft 392 kts 266°
2026-05-06 07:22 -34.61907 142.72207 36160 ft 392 kts 266°
2026-05-06 07:23 -34.62541 142.65630 36163 ft 392 kts 266°
2026-05-06 07:23 -34.63171 142.59061 36164 ft 392 kts 266°
2026-05-06 07:24 -34.63746 142.52529 36162 ft 391 kts 268°
2026-05-06 07:24 -34.64115 142.45946 36163 ft 391 kts 269°
2026-05-06 07:25 -34.64451 142.39361 36163 ft 391 kts 269°
2026-05-06 07:25 -34.64802 142.32773 36168 ft 391 kts 269°
2026-05-06 07:26 -34.65163 142.26186 36168 ft 391 kts 269°
2026-05-06 07:26 -34.65526 142.19589 36170 ft 391 kts 269°
2026-05-06 07:27 -34.65885 142.12990 36164 ft 392 kts 269°
2026-05-06 07:27 -34.66242 142.06392 36167 ft 392 kts 269°
2026-05-06 07:28 -34.66595 141.99789 36164 ft 392 kts 269°
2026-05-06 07:28 -34.67117 141.89880 36171 ft 392 kts 269°
2026-05-06 07:29 -34.67461 141.83278 36171 ft 392 kts 269°
2026-05-06 07:29 -34.67801 141.76673 36173 ft 392 kts 269°
2026-05-06 07:30 -34.68138 141.70066 36176 ft 392 kts 269°
2026-05-06 07:30 -34.68472 141.63458 36176 ft 392 kts 269°
2026-05-06 07:31 -34.68801 141.56850 36178 ft 392 kts 269°
2026-05-06 07:31 -34.69128 141.50236 36177 ft 392 kts 269°
2026-05-06 07:32 -34.69451 141.43620 36181 ft 392 kts 269°
2026-05-06 07:32 -34.69770 141.37007 36182 ft 392 kts 269°
2026-05-06 07:33 -34.70083 141.30436 36185 ft 392 kts 269°
2026-05-06 07:33 -34.70396 141.23820 36185 ft 392 kts 269°
2026-05-06 07:34 -34.70704 141.17200 36184 ft 392 kts 269°
2026-05-06 07:34 -34.71009 141.10582 36187 ft 392 kts 269°
2026-05-06 07:35 -34.71311 141.03963 36187 ft 392 kts 269°
2026-05-06 07:35 -34.71609 140.97349 36192 ft 392 kts 268°
2026-05-06 07:36 -34.71903 140.90734 36192 ft 392 kts 269°
2026-05-06 07:36 -34.72193 140.84124 36195 ft 392 kts 269°
2026-05-06 07:37 -34.72337 140.80812 35968 ft 396 kts 268°
2026-05-06 07:37 -34.72482 140.77459 35482 ft 397 kts 268°
2026-05-06 07:37 -34.72626 140.74110 34887 ft 396 kts 268°
2026-05-06 07:37 -34.72769 140.70766 34261 ft 397 kts 268°
2026-05-06 07:38 -34.72911 140.67409 33540 ft 398 kts 268°
2026-05-06 07:38 -34.73053 140.64046 32826 ft 399 kts 268°
2026-05-06 07:38 -34.73194 140.60677 32126 ft 400 kts 268°
2026-05-06 07:38 -34.73335 140.57301 31428 ft 400 kts 268°
2026-05-06 07:39 -34.73475 140.53915 30719 ft 402 kts 268°
2026-05-06 07:39 -34.73615 140.50516 29937 ft 404 kts 267°
2026-05-06 07:39 -34.73755 140.47102 29090 ft 405 kts 267°
2026-05-06 07:39 -34.73894 140.43710 28571 ft 399 kts 266°
2026-05-06 07:40 -34.74031 140.40356 28004 ft 395 kts 266°
2026-05-06 07:40 -34.74165 140.37046 27441 ft 390 kts 266°
2026-05-06 07:40 -34.74296 140.33767 26914 ft 386 kts 266°
2026-05-06 07:40 -34.74424 140.30565 26386 ft 382 kts 265°
2026-05-06 07:41 -34.74551 140.27352 25861 ft 379 kts 265°
2026-05-06 07:41 -34.74679 140.24124 25336 ft 375 kts 265°
2026-05-06 07:41 -34.74802 140.20967 24825 ft 372 kts 264°
2026-05-06 07:41 -34.74924 140.17837 24316 ft 369 kts 264°
2026-05-06 07:42 -34.75044 140.14727 23815 ft 367 kts 264°
2026-05-06 07:42 -34.75163 140.11643 23222 ft 364 kts 264°
2026-05-06 07:42 -34.75280 140.08576 22665 ft 361 kts 264°
2026-05-06 07:42 -34.75393 140.05583 22162 ft 358 kts 264°
2026-05-06 07:43 -34.75507 140.02575 21651 ft 354 kts 264°
2026-05-06 07:43 -34.75618 139.99595 21149 ft 352 kts 264°
2026-05-06 07:43 -34.75728 139.96635 20653 ft 349 kts 264°
2026-05-06 07:43 -34.75837 139.93695 20160 ft 347 kts 264°
2026-05-06 07:44 -34.75944 139.90776 19676 ft 345 kts 264°
2026-05-06 07:44 -34.76050 139.87870 19191 ft 343 kts 264°
2026-05-06 07:44 -34.76156 139.84976 18712 ft 342 kts 264°
2026-05-06 07:44 -34.76260 139.82091 18168 ft 341 kts 264°
2026-05-06 07:45 -34.76363 139.79216 17645 ft 339 kts 264°
2026-05-06 07:45 -34.76464 139.76358 17145 ft 337 kts 264°
2026-05-06 07:45 -34.76564 139.73520 16662 ft 335 kts 264°
2026-05-06 07:45 -34.76663 139.70699 16180 ft 333 kts 264°
2026-05-06 07:46 -34.76760 139.67897 15711 ft 331 kts 264°
2026-05-06 07:46 -34.76857 139.65112 15238 ft 329 kts 264°
2026-05-06 07:46 -34.76952 139.62341 14779 ft 327 kts 264°
2026-05-06 07:46 -34.77046 139.59587 14322 ft 325 kts 264°
2026-05-06 07:47 -34.77139 139.56841 13837 ft 324 kts 264°
2026-05-06 07:47 -34.77232 139.54109 13327 ft 323 kts 264°
2026-05-06 07:47 -34.77323 139.51389 12847 ft 321 kts 264°
2026-05-06 07:47 -34.77413 139.48692 12381 ft 318 kts 264°
2026-05-06 07:48 -34.77502 139.46007 11925 ft 316 kts 264°
2026-05-06 07:48 -34.77589 139.43345 11466 ft 315 kts 264°
2026-05-06 07:48 -34.77673 139.40726 11040 ft 313 kts 264°
2026-05-06 07:48 -34.77739 139.38142 10977 ft 299 kts 265°
2026-05-06 07:49 -34.77796 139.35622 10842 ft 289 kts 265°
2026-05-06 07:49 -34.77849 139.33233 10582 ft 284 kts 264°
2026-05-06 07:49 -34.77902 139.30872 10413 ft 268 kts 264°
2026-05-06 07:49 -34.77950 139.28700 10282 ft 253 kts 264°
2026-05-06 07:50 -34.77998 139.26607 10172 ft 243 kts 264°
2026-05-06 07:50 -34.78046 139.24557 10083 ft 242 kts 264°
2026-05-06 07:50 -34.78096 139.22497 9905 ft 246 kts 264°
2026-05-06 07:50 -34.78145 139.20422 9621 ft 244 kts 264°
2026-05-06 07:51 -34.78192 139.18363 9351 ft 243 kts 264°
2026-05-06 07:51 -34.78239 139.16311 9088 ft 242 kts 264°
2026-05-06 07:51 -34.78285 139.14265 8809 ft 242 kts 265°
2026-05-06 07:51 -34.78329 139.12230 8538 ft 240 kts 264°
2026-05-06 07:52 -34.78374 139.10204 8274 ft 239 kts 264°
2026-05-06 07:52 -34.78417 139.08184 8001 ft 238 kts 265°
2026-05-06 07:52 -34.78458 139.06275 7744 ft 237 kts 265°
2026-05-06 07:52 -34.78501 139.04277 7486 ft 236 kts 265°
2026-05-06 07:53 -34.78544 139.02284 7223 ft 236 kts 265°
2026-05-06 07:53 -34.78586 139.00292 6958 ft 235 kts 265°
2026-05-06 07:53 -34.78628 138.98302 6705 ft 235 kts 266°
2026-05-06 07:53 -34.78669 138.96318 6429 ft 235 kts 265°
2026-05-06 07:54 -34.78710 138.94334 6157 ft 234 kts 265°
2026-05-06 07:54 -34.78749 138.92359 5902 ft 233 kts 265°
2026-05-06 07:54 -34.78787 138.90419 5793 ft 225 kts 265°
2026-05-06 07:54 -34.78824 138.88542 5657 ft 219 kts 265°
2026-05-06 07:55 -34.78862 138.86697 5423 ft 217 kts 265°
2026-05-06 07:55 -34.78899 138.84867 5191 ft 215 kts 265°
2026-05-06 07:55 -34.78934 138.83066 4985 ft 210 kts 265°
2026-05-06 07:55 -34.78965 138.81327 4757 ft 202 kts 265°
2026-05-06 07:56 -34.78997 138.79655 4601 ft 192 kts 264°
2026-05-06 07:56 -34.79025 138.78085 4494 ft 180 kts 263°
2026-05-06 07:56 -34.79192 138.76652 4359 ft 165 kts 239°
2026-05-06 07:56 -34.79827 138.75529 4368 ft 161 kts 233°
2026-05-06 07:57 -34.80485 138.74373 4210 ft 168 kts 231°
2026-05-06 07:57 -34.81191 138.73239 3987 ft 167 kts 230°
2026-05-06 07:57 -34.81909 138.72148 3768 ft 163 kts 228°
2026-05-06 07:57 -34.82619 138.71093 3546 ft 159 kts 227°
2026-05-06 07:58 -34.83091 138.70397 3420 ft 156 kts 227°
2026-05-06 07:58 -34.84012 138.69045 3143 ft 159 kts 227°
2026-05-06 07:58 -34.84717 138.68012 2913 ft 158 kts 226°
2026-05-06 07:58 -34.85187 138.67323 2768 ft 156 kts 226°
2026-05-06 07:59 -34.86107 138.65974 2493 ft 154 kts 226°
2026-05-06 07:59 -34.86558 138.65312 2336 ft 146 kts 226°
2026-05-06 07:59 -34.87167 138.64418 2153 ft 131 kts 226°
2026-05-06 07:59 -34.87725 138.63601 1981 ft 124 kts 226°
2026-05-06 08:00 -34.88275 138.62797 1862 ft 124 kts 226°
2026-05-06 08:00 -34.88839 138.61973 1640 ft 124 kts 226°
2026-05-06 08:00 -34.89392 138.61162 1463 ft 126 kts 226°
2026-05-06 08:00 -34.89954 138.60339 1295 ft 128 kts 227°
2026-05-06 08:01 -34.90517 138.59516 1118 ft 126 kts 228°
2026-05-06 08:01 -34.91072 138.58702 973 ft 126 kts 228°
2026-05-06 08:01 -34.91635 138.57879 775 ft 124 kts 229°
2026-05-06 08:01 -34.92187 138.57072 613 ft 122 kts 231°
2026-05-06 08:02 -34.92711 138.56301 453 ft 117 kts 228°
2026-05-06 08:02 -34.93236 138.55532 325 ft 118 kts 228°
2026-05-06 08:02 -34.93777 138.54754 166 ft 122 kts 229°
2026-05-06 08:02 -34.94302 138.53981 38 ft 112 kts 228°
2026-05-06 08:03 -34.94728 138.53361 27 ft 70 kts 230°
2026-05-06 08:03 -34.94902 138.53108 26 ft 14 kts 230°
2026-05-06 08:03 -34.94940 138.53025 26 ft 11 kts 273°
2026-05-06 08:03 -34.94885 138.52990 26 ft 10 kts 12°
2026-05-06 08:04 -34.94818 138.53017 25 ft 10 kts 19°
2026-05-06 08:04 -34.94754 138.53046 27 ft 10 kts 19°
2026-05-06 08:04 -34.94691 138.53074 27 ft 9 kts 20°
2026-05-06 08:04 -34.94629 138.53102 27 ft 10 kts 20°
2026-05-06 08:05 -34.94544 138.53140 25 ft 14 kts 20°
2026-05-06 08:05 -34.94512 138.53225 25 ft 12 kts 108°
2026-05-06 08:05 -34.94504 138.53338 26 ft 16 kts 60°
2026-05-06 08:05 -34.94432 138.53450 27 ft 17 kts 50°
2026-05-06 08:06 -34.94358 138.53558 27 ft 15 kts 50°
2026-05-06 08:06 -34.94294 138.53644 26 ft 13 kts 34°
2026-05-06 08:06 -34.94207 138.53640 26 ft 13 kts
2026-05-06 08:06 -34.94140 138.53706 26 ft 13 kts 50°
2026-05-06 08:07 -34.94085 138.53786 27 ft 12 kts 50°
2026-05-06 08:07 -34.94031 138.53864 25 ft 12 kts 50°
2026-05-06 08:07 -34.93979 138.53939 26 ft 11 kts 50°
2026-05-06 08:07 -34.93931 138.54008 25 ft 10 kts 50°
2026-05-06 08:08 -34.93886 138.54074 27 ft 9 kts 48°
2026-05-06 08:08 -34.93841 138.54063 26 ft 7 kts 331°
2026-05-06 08:08 -34.93820 138.54044 28 ft 3 kts 322°
2026-05-06 08:08 -34.93807 138.54032 26 ft 1 kts 321°
2026-05-06 08:09 -34.93807 138.54031 26 ft 0 kts 321°